KI5BDI Weather Reports


Display with metric or nautical units.
time (UTC)temp
F
wind
direction
speed
MPH
gust
MPH
rain 1hr
in
rain 24hr
in
rain mn
in
humidity
%
barometer
mb
20260506150522 55 12 4.0 7.0 0.00 0.09 0.00 92 1013.4
20260506145517 55 10 4.0 8.0 0.00 0.10 0.00 92 1013.3
20260506144518 55 358 5.0 8.0 0.00 0.10 0.00 92 1013.2
20260506143544 55 15 4.0 7.0 0.00 0.10 0.00 92 1013.1
20260506142523 55 5 5.0 10.0 0.00 0.11 0.00 91 1012.7
20260506141523 55 11 5.0 8.0 0.00 0.11 0.00 91 1012.6
20260506140518 55 3 4.0 7.0 0.00 0.11 0.00 91 1012.6
20260506135539 55 8 6.0 11.0 0.00 0.11 0.00 90 1012.1
20260506134517 55 10 5.0 8.0 0.00 0.11 0.00 90 1012.3
20260506133518 55 16 5.0 8.0 0.00 0.11 0.00 90 1012.3
20260506132518 55 14 5.0 8.0 0.00 0.11 0.00 90 1012.3
20260506131544 55 2 5.0 8.0 0.00 0.11 0.00 90 1012.2
20260506130518 55 23 5.0 9.0 0.00 0.11 0.00 91 1012.2
20260506125519 55 15 6.0 9.0 0.00 0.11 0.00 90 1012.0
20260506124538 56 6 6.0 9.0 0.00 0.11 0.00 89 1012.0
20260506123519 56 12 4.0 7.0 0.00 0.11 0.00 89 1011.8
20260506122519 56 12 4.0 8.0 0.00 0.11 0.00 88 1011.6
20260506121519 56 3 5.0 7.0 0.00 0.11 0.00 88 1011.5
20260506120540 56 6 4.0 8.0 0.00 0.11 0.00 88 1011.1
20260506115520 57 15 4.0 6.0 0.00 0.11 0.00 88 1011.0
20260506114519 57 5 4.0 7.0 0.00 0.11 0.00 89 1010.8
20260506113521 57 7 4.0 6.0 0.00 0.11 0.00 90 1010.6
20260506112601 57 15 5.0 9.0 0.00 0.11 0.00 91 1010.5
20260506111520 57 9 4.0 5.0 0.00 0.11 0.00 92 1010.2
20260506110521 57 11 3.0 4.0 0.00 0.11 0.00 92 1010.0
20260506105520 57 4 2.0 4.0 0.00 0.11 0.00 92 1009.9
20260506104520 57 5 2.0 4.0 0.00 0.11 0.00 92 1009.9
20260506103520 57 20 3.0 4.0 0.00 0.11 0.00 91 1009.7
20260506102521 57 15 3.0 5.0 0.00 0.11 0.00 90 1009.7
20260506101522 58 8 4.0 7.0 0.00 0.11 0.00 89 1009.6
20260506100521 58 12 4.0 6.0 0.00 0.11 0.00 87 1009.4
20260506095541 58 6 4.0 7.0 0.00 0.11 0.00 87 1009.4
20260506094521 58 12 3.0 5.0 0.00 0.11 0.00 88 1009.4
20260506093521 59 13 4.0 6.0 0.00 0.11 0.00 89 1009.2
20260506092521 59 13 4.0 6.0 0.00 0.11 0.00 90 1009.0
20260506091521 59 14 3.0 4.0 0.00 0.11 0.00 90 1009.0
20260506090522 59 9 3.0 4.0 0.00 0.11 0.00 90 1009.0
20260506085522 59 21 3.0 6.0 0.00 0.11 0.00 89 1009.0
20260506084522 59 10 2.0 3.0 0.00 0.11 0.00 89 1009.0
20260506083523 60 11 2.0 3.0 0.00 0.11 0.00 88 1009.0
20260506082518 60 17 4.0 6.0 0.00 0.11 0.00 87 1009.0
20260506081523 61 32 3.0 8.0 0.00 0.11 0.00 86 1008.9
20260506080522 61 26 4.0 7.0 0.00 0.11 0.00 86 1008.9
20260506073524 63 13 3.0 7.0 0.00 0.11 0.00 87 1008.8
20260506072517 63 21 3.0 6.0 0.00 0.11 0.00 87 1008.6
20260506071517 64 12 4.0 5.0 0.00 0.11 0.00 86 1008.6
20260506070517 64 10 4.0 7.0 0.00 0.11 0.00 86 1008.7
20260506062517 66 13 3.0 6.0 0.00 0.11 0.00 84 1008.4
20260506061518 66 7 4.0 7.0 0.00 0.11 0.00 84 1008.4
20260506060518 67 8 4.0 8.0 0.00 0.11 0.00 83 1008.5
20260506050539 75 345 7.0 12.0 0.00 0.11 0.00 84 1007.9
20260506044525 76 0.0 0.0 0.00 0.11 0.11 89 1007.5
20260506043525 76 0.0 0.0 0.00 0.11 0.11 89 1007.4
20260506042525 76 0.0 0.0 0.00 0.11 0.11 89 1007.3
20260506041525 76 0.0 0.0 0.00 0.11 0.11 89 1007.3
20260506040526 76 0.0 0.0 0.00 0.11 0.11 88 1007.1
20260506035526 77 0.0 0.0 0.00 0.11 0.11 89 1007.2
20260506034546 76 286 1.0 3.0 0.00 0.11 0.11 89 1007.0
20260506033526 76 234 1.0 2.0 0.00 0.11 0.11 89 1006.6
20260506032526 76 212 0.0 2.0 0.00 0.11 0.11 88 1006.3
20260506031526 76 211 0.0 1.0 0.00 0.11 0.11 88 1006.0
20260506030526 77 166 1.0 4.0 0.00 0.11 0.11 88 1005.6
20260506025547 76 182 2.0 3.0 0.00 0.11 0.11 88 1005.6
20260506024528 77 184 1.0 3.0 0.00 0.11 0.11 88 1005.4
20260506023527 77 169 1.0 3.0 0.00 0.11 0.11 88 1005.3
20260506022528 77 184 1.0 3.0 0.00 0.11 0.11 87 1005.4
20260506021528 77 178 2.0 4.0 0.00 0.11 0.11 87 1005.3
20260506020519 77 177 1.0 3.0 0.00 0.11 0.11 87 1005.2
20260506015519 77 189 1.0 5.0 0.00 0.11 0.11 86 1005.0
20260506014520 78 169 3.0 5.0 0.00 0.11 0.11 86 1004.9
20260506013520 78 175 3.0 4.0 0.00 0.11 0.11 85 1005.1
20260506012516 78 186 2.0 4.0 0.00 0.11 0.11 84 1005.0
20260506011540 79 189 1.0 3.0 0.00 0.11 0.11 84 1005.0
20260506010541 79 179 1.0 3.0 0.00 0.11 0.11 83 1004.9
20260506005520 79 176 1.0 5.0 0.00 0.11 0.11 82 1004.8
20260506004541 80 181 2.0 4.0 0.00 0.11 0.11 81 1004.8
20260506003517 80 191 2.0 4.0 0.00 0.11 0.11 81 1004.8
20260506002518 81 202 2.0 5.0 0.00 0.11 0.11 80 1004.7
20260506001520 81 199 3.0 6.0 0.00 0.11 0.11 79 1004.6
20260506000518 82 206 3.0 7.0 0.00 0.11 0.11 78 1004.7
20260505235518 82 203 2.0 5.0 0.00 0.11 0.11 77 1004.5
20260505234518 82 211 3.0 6.0 0.00 0.11 0.11 77 1004.5
20260505233538 82 206 3.0 7.0 0.00 0.11 0.11 78 1004.4
20260505232520 82 214 3.0 9.0 0.00 0.11 0.11 78 1004.3
20260505231539 82 209 5.0 9.0 0.00 0.12 0.11 76 1004.4
20260505230519 83 204 3.0 7.0 0.00 0.12 0.11 76 1004.5
20260505225520 83 211 4.0 7.0 0.00 0.12 0.11 76 1004.3
20260505224540 84 198 4.0 9.0 0.00 0.12 0.11 73 1004.1
20260505223520 84 185 5.0 12.0 0.00 0.16 0.11 74 1004.0
20260505222519 83 203 4.0 8.0 0.00 0.16 0.11 75 1004.1
20260505221520 83 190 4.0 6.0 0.00 0.16 0.11 77 1004.2
20260505220519 83 188 5.0 9.0 0.00 0.16 0.11 76 1004.2
20260505215540 83 192 6.0 13.0 0.00 0.16 0.11 75 1004.3
20260505214520 83 209 4.0 8.0 0.00 0.16 0.11 75 1004.2
20260505213517 83 195 6.0 13.0 0.00 0.16 0.11 75 1004.2
20260505212519 83 196 5.0 13.0 0.00 0.16 0.11 75 1004.5
20260505211520 84 204 6.0 10.0 0.00 0.16 0.11 73 1004.5
20260505210520 84 226 5.0 9.0 0.00 0.16 0.11 75 1004.6
20260505205539 84 189 7.0 12.0 0.00 0.16 0.11 75 1004.6
20260505204538 84 192 5.0 12.0 0.00 0.16 0.11 75 1004.6
20260505203518 83 223 5.0 11.0 0.00 0.16 0.11 75 1004.8
20260505202518 83 209 5.0 10.0 0.00 0.16 0.11 76 1004.8
20260505201518 83 207 5.0 9.0 0.00 0.16 0.11 76 1004.9
20260505200518 82 202 7.0 15.0 0.00 0.16 0.11 76 1004.9
20260505195518 82 223 6.0 12.0 0.00 0.16 0.11 77 1005.0
20260505194540 82 205 6.0 12.0 0.00 0.16 0.11 77 1005.2
20260505193539 82 201 6.0 12.0 0.00 0.16 0.11 77 1005.3
20260505192541 81 221 5.0 9.0 0.00 0.16 0.11 77 1005.4
20260505191519 81 207 6.0 12.0 0.00 0.16 0.11 77 1005.3
20260505190541 81 214 6.0 12.0 0.00 0.16 0.11 77 1005.4
20260505185520 80 222 5.0 10.0 0.00 0.16 0.11 78 1005.5
20260505184521 80 202 7.0 10.0 0.01 0.16 0.11 78 1005.4
20260505183517 79 204 6.0 13.0 0.02 0.16 0.11 79 1005.6
20260505182517 79 209 6.0 10.0 0.03 0.16 0.11 79 1005.7
20260505181520 79 210 6.0 13.0 0.04 0.16 0.11 80 1005.8
20260505180521 79 214 6.0 12.0 0.05 0.16 0.11 79 1005.8
20260505175517 79 226 7.0 13.0 0.06 0.16 0.11 78 1005.6
20260505174517 79 206 7.0 13.0 0.06 0.16 0.10 79 1005.6
20260505173518 79 222 7.0 13.0 0.06 0.15 0.09 79 1005.5
20260505172521 78 204 7.0 15.0 0.05 0.14 0.08 81 1005.6
20260505171518 77 201 6.0 12.0 0.04 0.13 0.06 82 1005.8
20260505170518 77 219 5.0 13.0 0.03 0.12 0.06 82 1006.0
20260505165519 77 208 7.0 14.0 0.02 0.12 0.05 82 1005.9
20260505164518 76 226 5.0 10.0 0.01 0.11 0.04 83 1006.0
20260505163518 75 205 7.0 12.0 0.01 0.12 0.03 83 1005.8
20260505162539 75 218 5.0 12.0 0.00 0.11 0.03 84 1005.8
20260505161519 75 198 6.0 11.0 0.01 0.12 0.03 84 1005.9
20260505160520 75 209 6.0 14.0 0.01 0.12 0.03 84 1005.9
20260505152521 74 210 6.0 13.0 0.02 0.13 0.03 85 1005.9
20260505151520 74 191 7.0 13.0 0.01 0.12 0.02 85 1006.0